Miscellaneous Local Product
Issued by NWS Hastings, NE

Home | Current Version | Previous Version | Text Only | Print | Product List | Glossary On
Versions: 1 2 3 4 5 6 7 8 9 10 11 12 13 14 15 16 17 18 19 20 21 22 23 24 25 26 27 28 29 30 31 32 33 34 35 36 37 38 39 40 41 42 43 44 45 46 47 48 49 50
000
AXUS43 KGID 010810
MISGRI

GID CWA HOURLY WEATHER ROUNDUP
NATIONAL WEATHER SERVICE HASTINGS NE
300 AM CDT WED OCT 01 2014

NOTE: "FAIR" INDICATES FEW OR NO CLOUDS BELOW 12,000 FEET WITH NO
SIGNIFICANT WEATHER AND/OR OBSTRUCTIONS TO VISIBILITY.

...SOUTH CENTRAL NEBRASKA...

CITY           SKY/WX    TMP DP  RH WIND       PRES   REMARKS
GRAND ISLAND   FOG       58  56  93 NE3       29.72S VSB 1/2
HASTINGS       CLOUDY    63  58  83 SE6       29.71F
KEARNEY        CLOUDY    63  61  94 SE8       29.73S
ORD            CLOUDY    61  58  90 S6        29.71S
YORK           MOCLDY    61  61 100 CALM      29.70F
AURORA         CLOUDY    61  61 100 CALM      29.71F FOG
LEXINGTON      FOG       59  58  97 SW5       29.74R VSB 1/4
HOLDREGE       FOG       62  61  96 CALM      29.72F VSB 3/4
HEBRON         CLOUDY    64  62  93 E5        29.70F FOG

...NEBRASKA PANHANDLE...

CITY           SKY/WX    TMP DP  RH WIND       PRES   REMARKS
CHADRON        MOCLDY    49  46  90 W5        29.78R
ALLIANCE       MOCLDY    51  46  83 CALM      29.79R
SCOTTSBLUFF    PTCLDY    50  45  83 NW3       29.81R
SIDNEY         MOCLDY    51  43  74 W8        29.84R

...WESTERN AND NORTH CENTRAL NEBRASKA...

CITY           SKY/WX    TMP DP  RH WIND       PRES   REMARKS
VALENTINE      CLOUDY    51  47  86 W9        29.72R
AINSWORTH      CLOUDY    58  47  67 SW5       29.71S
ONEILL         CLOUDY    63  61  94 S8        29.72F
BROKEN BOW     CLOUDY    57  55  93 NW5       29.75R
IMPERIAL       PTCLDY    53  45  74 NW5       29.78R
NORTH PLATTE   MOCLDY    55  49  80 CALM      29.76F
MCCOOK         CLEAR     58  57  97 SW3       29.75R FOG

...EASTERN NEBRASKA...

CITY           SKY/WX    TMP DP  RH WIND       PRES   REMARKS
NORFOLK        CLOUDY    63  61  93 S6        29.73F
SO SIOUX CITY  CLOUDY    63  61  93 SE5       29.74S
TEKAMAH        LGT RAIN  64  62  93 SE12G26   29.70F
COLUMBUS       MOCLDY    61  57  88 SE6       29.74F
ALBION         CLOUDY    62  60  94 SE7       29.73S FOG
OMAHA EPPLEY   RAIN      64  61  90 E13       29.73F
OFFUTT AFB     LGT RAIN  62  62 100 E8        29.74F
MILLARD        LGT RAIN  63  61  94 E7        29.72F
LINCOLN        CLOUDY    62  60  93 NE6       29.72F
NEBRASKA CITY  CLOUDY    63  62  98 N18       29.75S
BEATRICE       CLOUDY    64  63  96 E9        29.71F
FALLS CITY     RAIN      66  64  93 S8        29.73S FOG

...NORTHERN KANSAS...

CITY           SKY/WX    TMP DP  RH WIND       PRES   REMARKS
GOODLAND       MOCLDY    54  47  77 W9        29.81R
HILL CITY      CLOUDY    64  62  93 NW6       29.73S FOG
NORTON         FOG       61  57  88 SW3       29.73S VSB 1/4
PHILLIPSBURG   CLOUDY    66  66 100 CALM      29.72S
SMITH CENTER   FOG       61  61 100 N3        29.71S VSB 1/4
BELOIT         CLEAR     61  61 100 CALM      29.67S
HAYS           CLOUDY    57  52  82 W7        29.72R VSB 1/2
RUSSELL        CLEAR     60  58  92 W7        29.69R FOG
CONCORDIA      PTCLDY    64  64 100 CALM      29.68R
SALINA         LGT RAIN  70  65  84 S13       29.68S
TOPEKA         LGT RAIN  73  64  73 S10G21    29.71S



USA.gov is the U.S. government's official web portal to all federal, state and local government web resources and services.